Starlink 31886

operational
NORAD ID: 59662 Int'l Des: 2024-084 Owner: SPXS Country: US Constellation: starlink
LEOCIRCULAR

关于 Starlink 31886

正在加载描述...

实时位置

正在加载3D地球...

即将过境

高度历史

Altitude vs Time

uPlot chart will show altitude changes over time

两行轨道根数

1 59662U 24084J 25260.16884953 -.00004894 00000-0 -16856-3 0 9991
2 59662 42.9996 301.9013 0001030 266.7867 93.2867 15.27560587 77838
Epoch: Sep 17, 2025 • Age: 7 hours

当前状态

高度 483.4 km
速度 7.63 km/s
星下点 25.20°N, 70.67°W
发射日期 May 6, 2024
运行时间 1.3 years
类型 internet

技术详情

分类 Payload
质量 730.00 kg
干质量 700.00 kg
总质量 730.00 kg
长度 0.30 m
直径 4.10 m
跨度 29.00 m
形状 Box + pan
制造商 SPXS
平台类型 Starlink V2M
阶段状态 In Orbit
所有者/国家 SPXS/US

大型星座

Loading constellations...